Regional Weather Roundup
Issued by NWS Newport/Morehead, NC

Current Version | Previous Version | Graphics & Text | Print | Product List | Glossary Off
Versions: 1 2 3 4 5 6 7 8 9 10 11 12 13 14 15 16 17 18 19 20 21 22 23 24 25 26 27 28 29 30 31 32 33 34 35 36 37 38 39 40 41 42 43 44 45 46 47 48 49 50

000
ASUS42 KMHX 060912
RWRMHX
WEATHER ROUNDUP FOR EASTERN NORTH CAROLINA
NATIONAL WEATHER SERVICE NEWPORT/MOREHEAD CITY NC
400 AM EST TUE DEC 06 2016

NOTE: "FAIR" INDICATES FEW OR NO CLOUDS BELOW 12,000 FEET
WITH NO SIGNIFICANT WEATHER AND/OR OBSTRUCTIONS TO VISIBILITY

NCZ015>017-031-032-045>047-102-103-061000-
NORTH COAST

CITY           SKY/WX    TMP DP  RH WIND       PRES   REMARKS
EDENTON        NOT AVBL
ELIZABETH CITY LGT RAIN  49  46  90 N7        30.08F
KITTY HAWK     NOT AVBL
MANTEO         NOT AVBL

$$

NCZ045>047-081-094-103-104-061000-
CENTRAL COAST

CITY           SKY/WX    TMP DP  RH WIND       PRES   REMARKS
FRISCO         LGT RAIN  52  50  93 NE9G16    30.03F

$$

NCZ095-097-098-100-101-061000-
SOUTHERN COAST

CITY           SKY/WX    TMP DP  RH WIND       PRES   REMARKS
BEAUFORT       LGT RAIN  51  49  92 NE8       30.00F FOG
CEDAR ISLAND   NOT AVBL
JACKSONVILLE   CLOUDY    48  48 100 NE8       30.01F FOG
PINEY ISLAND   LGT RAIN N/A N/A N/A NE10      30.02F
WILMINGTON     LGT RAIN  48  48 100 NE14      29.95F


$$

NCZ011>013-027>030-043-044-078>080-089-090>093-098-061000-
COASTAL PLAIN

CITY           SKY/WX    TMP DP  RH WIND       PRES   REMARKS
AHOSKIE        NOT AVBL
CLINTON        NOT AVBL
ELIZABETHTOWN  NOT AVBL
GOLDSBORO      MOCLDY    47  47 100 E15       29.95F
GREENVILLE     NOT AVBL
HAVELOCK       LGT RAIN  50  47  89 NE12      30.03F
KENANSVILLE    NOT AVBL
KINSTON        NOT AVBL
NEW BERN       RAIN      48  46  93 NE9       30.04F
RICHLANDS      LGT RAIN  46  46 100 NE13      29.99F
ROCKY MOUNT    CLOUDY    46  45  96 NE8       30.00F
WASHINGTON     NOT AVBL
WHITEVILLE     NOT AVBL

$$

AMZ130-135-150-152-154-156-158-170-250-252-270-ANZ085-086-088-633-658-670-061000-
MARINE OBSERVATIONS

STATION/POSITION TIME  TEMP    WIND        PRES    WAVE   SWELL
                       AIR SEA DIR/SP/G            HT/PER HT/PER
                 (UTC) (F)     (DEG/KT/KT) (MB)    (FT/S) (FT/S)
CHESAPEAKE LIGHT NOT AVBL
64 E VA BEACH    0850   55 60   50/ 12/ 16 1018.4    6/ 8   5/ 8
DUCK             0836   53 54   40/ 11/ 12 1018.1
2 E DUCK         NOT AVBL
OREGON INLET     0836   53 56   20/ 12/ 16 1017.8
13E OREGON INLT  NOT AVBL
HATTERAS CG      0836   53 60   30/ 12/ 15 1016.6
DIAMOND BUOY     0850   60 76   30/ 19/ 21 1015.9    5/ 8   2/13
CAPE LOOKOUT     0900   54      30/ 21/ 25 1015.4
BEAUFORT LAB     0836   50 55   20/  9/ 11 1015.0
30 SE NEW RVR IN 0808   54 70   50/ 19/ 25 1014.7
30 SE NEW RVR IN NOT AVBL
27 SE WRIGHTSVLE 0808   59 67   70/ 21/ 27 1014.4
5 SE WRIGHTSVLE  0808   50 62   50/ 16/ 27 1014.3
225 S CAPE HAT   0850   74 74  200/ 17/ 21 1013.4    6/ 6   2/10
41 SE CHARLESTON 0850   70 74   50/ 21/ 25 1009.5    6/ 6

$$




USA.gov is the U.S. government's official web portal to all federal, state and local government web resources and services.